Location: Andrest
(43.3200°N, 0.0641°E)
Time: 20:45:19
(UTC+00:00)

Lacrosse 4 Rocket - Pass Details

Date: 01 December 2020
Orbit: 537 x 620 km, 68.0° (Epoch: 20 January)

Event Time Altitude Azimuth Distance (km) Brightness Sun altitude
Rises 19:20:20 0° 220° (SW) 2,682 5.4 -31.2°
Reaches altitude 10° 19:22:32 10° 225° (SW) 1,800 4.4 -31.6°
Enters shadow 19:23:31 17° 229° (SW) 1,425 3.9 -31.8°
